Home   Weather   Hamilton   Past weeks

Flag for Bermuda Past Weather in Hamilton, Bermuda — Yesterday and Last 2 Weeks

Now
68 °F

Sprinkles. Broken clouds.


Feels Like: 68 °F
Forecast: N/A
Wind: 23 mph from North

Location: Bermuda

Current Time: Jan 19, 2017 at 5:33:15 pm

Latest Report: Jan 19, 2017 at 4:55 pm


Visibility: N/A

Pressure: 29.65 "Hg

Humidity: 78%

Dew Point: 61 °F

Location of HamiltonLocation

Past Weather in Hamilton — Graph

°F

Hamilton Temperature Yesterday

Maximum temperature yesterday: 70 °F (at 11:55 am)
Minimum temperature yesterday: 64 °F (at 1:55 am)
Average temperature yesterday: 68 °F

High & Low Weather Summary for the Past Weeks

 TemperatureHumidityPressure
High73 °F (Jan 7, 4:28 pm)100% (Jan 5, 12:36 pm)30.48 "Hg (Jan 5, 12:36 pm)
Low54 °F (Jan 9, 5:55 pm)48% (Jan 9, 12:55 pm)29.56 "Hg (Jan 19, 5:55 am)
Average65 °F75%30.18 "Hg
* Reported Jan 4 3:55 pm — Jan 19 3:55 pm, Hamilton, Weather by CustomWeather, © 2017

Note: Actual official high and low records may vary slightly from our data, if they occured in-between our weather recording intervals... More about our weather records

Advertising

Hamilton Weather History for the Previous 24 Hours

Scroll right to see more
 ConditionsComfort  
Time TempWeatherWind HumidityBarometerVisibility
3:55 pm
Thu, Jan 19
68 °FScattered showers. Broken clouds.20 mph78%29.62 "HgN/A
2:55 pm68 °FSprinkles. Broken clouds.23 mph78%29.59 "HgN/A
1:55 pm68 °FBroken clouds.25 mph73%29.59 "HgN/A
12:55 pm68 °FScattered clouds.24 mph69%29.62 "HgN/A
11:55 am68 °FBroken clouds.24 mph69%29.65 "HgN/A
10:55 am66 °FBroken clouds.15 mph73%29.68 "HgN/A
9:55 am63 °FSprinkles. Broken clouds.16 mph83%29.65 "HgN/A
9:30 am61 °FSprinkles. Broken clouds.22 mph83%29.65 "Hg6 mi
8:55 am64 °FScattered showers. Broken clouds.20 mph78%29.62 "HgN/A
7:55 am64 °FScattered showers. Broken clouds.21 mph73%29.62 "HgN/A
6:55 am63 °FScattered showers. Partly cloudy.23 mph73%29.59 "HgN/A
5:55 am64 °FScattered showers. Partly cloudy.26 mph73%29.56 "HgN/A
4:55 am61 °FScattered showers. Partly cloudy.24 mph88%29.59 "HgN/A
3:55 am61 °FOvercast.22 mph94%29.62 "HgN/A
3:31 am61 °FScattered showers. Mostly cloudy.20 mph88%29.62 "HgN/A
2:55 am61 °FThunderstorms. Mostly cloudy.35 mph88%29.68 "Hg2 mi
2:30 am64 °FThunderstorms. Overcast.28 mph83%29.65 "HgN/A
1:55 am64 °FSprinkles. Overcast.26 mph88%29.68 "Hg4 mi
1:29 am64 °FSprinkles. Overcast.36 mph88%29.68 "Hg4 mi
1:09 am64 °FSprinkles. Mostly cloudy.26 mph88%29.68 "HgN/A
12:33 am63 °FLots of rain. Mostly cloudy.28 mph94%29.71 "Hg1 mi
11:48 pm
Wed, Jan 18
66 °FThunderstorms. Overcast.20 mph88%29.74 "Hg4 mi
10:55 pm68 °FScattered showers. Overcast.29 mph78%29.77 "HgN/A
9:55 pm68 °FScattered showers. Mostly cloudy.26 mph78%29.80 "HgN/A
8:55 pm68 °FOvercast.24 mph78%29.83 "HgN/A
7:55 pm68 °FOvercast.26 mph78%29.86 "HgN/A
6:55 pm68 °FPartly cloudy.24 mph78%29.89 "HgN/A
5:55 pm68 °FOvercast.24 mph78%29.89 "HgN/A
Weather by CustomWeather, © 2017

See weather overviewHow to use our weather pages